TimeMST,TemperatureF,Dew PointF,Humidity,Sea Level PressureIn,VisibilityMPH,Wind Direction,Wind SpeedMPH,Gust SpeedMPH,PrecipitationIn,Events,Conditions,WindDirDegrees,DateUTC
12:53 AM,30.0,24.1,79,29.75,10.0,NNW,3.5,-,N/A,,Clear,340,2013-01-27 07:53:00
1:53 AM,28.0,23.0,81,29.75,10.0,Calm,Calm,-,N/A,,Clear,0,2013-01-27 08:53:00
2:53 AM,28.9,23.0,78,29.73,10.0,Calm,Calm,-,N/A,,Clear,0,2013-01-27 09:53:00
3:53 AM,27.0,23.0,85,29.74,10.0,WSW,3.5,-,N/A,,Clear,240,2013-01-27 10:53:00
4:53 AM,27.0,21.0,78,29.74,10.0,WSW,6.9,-,N/A,,Clear,250,2013-01-27 11:53:00
5:53 AM,27.0,23.0,85,29.76,10.0,WSW,3.5,-,N/A,,Clear,250,2013-01-27 12:53:00
6:53 AM,24.1,21.0,88,29.78,10.0,Calm,Calm,-,N/A,,Clear,0,2013-01-27 13:53:00
7:53 AM,23.0,19.9,88,29.79,10.0,Calm,Calm,-,N/A,,Clear,0,2013-01-27 14:53:00
8:53 AM,30.9,26.1,82,29.75,10.0,Calm,Calm,-,N/A,,Clear,0,2013-01-27 15:53:00
9:53 AM,30.0,25.0,82,29.76,10.0,NE,3.5,-,N/A,,Clear,50,2013-01-27 16:53:00
10:53 AM,33.1,26.1,75,29.75,10.0,ENE,5.8,-,N/A,,Clear,60,2013-01-27 17:53:00
11:53 AM,33.1,25.0,72,29.73,10.0,ENE,9.2,-,N/A,,Clear,70,2013-01-27 18:53:00
12:53 PM,37.0,27.0,67,29.67,10.0,NE,8.1,-,N/A,,Clear,50,2013-01-27 19:53:00
1:53 PM,39.9,28.0,63,29.65,10.0,ESE,6.9,-,N/A,,Clear,120,2013-01-27 20:53:00
2:53 PM,41.0,28.0,60,29.60,10.0,ENE,5.8,-,N/A,,Clear,70,2013-01-27 21:53:00
3:53 PM,45.0,28.0,52,29.59,10.0,SSE,5.8,-,N/A,,Clear,150,2013-01-27 22:53:00
4:53 PM,42.1,28.9,60,29.59,10.0,SE,5.8,-,N/A,,Overcast,140,2013-01-27 23:53:00
5:53 PM,39.0,28.0,65,29.60,10.0,South,8.1,-,N/A,,Partly Cloudy,190,2013-01-28 00:53:00
6:53 PM,33.1,27.0,78,29.66,10.0,NNE,10.4,-,N/A,,Clear,20,2013-01-28 01:53:00
7:53 PM,30.9,25.0,79,29.69,10.0,North,19.6,-,N/A,,Partly Cloudy,10,2013-01-28 02:53:00
8:53 PM,28.0,21.9,78,29.69,10.0,North,19.6,31.1,N/A,,Scattered Clouds,10,2013-01-28 03:53:00
9:53 PM,27.0,21.0,78,29.72,10.0,North,18.4,27.6,N/A,,Clear,360,2013-01-28 04:53:00
10:53 PM,28.0,19.9,72,29.71,10.0,North,16.1,26.5,N/A,,Overcast,10,2013-01-28 05:53:00
11:29 PM,28.4,19.4,69,29.68,10.0,North,15.0,-,N/A,,Overcast,360,2013-01-28 06:29:00
11:53 PM,27.0,19.9,75,29.74,10.0,North,17.3,23.0,N/A,,Overcast,360,2013-01-28 06:53:00